CAPE
0 0 0 0 0 0 3 2 10 88 69 49 55 63 63 59 65 85 102 82 100 117 131 148 146 170 167
0 0 0 0 0 0 0 8 7 1 23 57 67 59 64 69 84 72 75 78 85 93 97 122 122 139 139
0 0 0 0 0 0 0 0 0 7 40 30 47 58 62 70 64 66 70 85 77 71 79 76 84 91 125
0 0 0 0 0 0 0 0 0 0 6 25 41 31 38 42 45 42 36 48 63 55 58 53 53 66 87
8 5 0 0 0 0 0 0 2 1 0 0 0 0 0 9 7 14 23 44 57 90 97 86 90 72 83
0 0 0 0 0 0 9 6 2 1 1 1 1 0 0 0 5 25 45 57 63 66 91 89 75 74 69
0 0 0 0 3 4 0 5 7 2 9 6 0 0 0 0 6 16 29 42 47 59 90 85 78 78 90
0 0 5 2 0 1 1 5 2 0 1 1 0 0 0 0 9 17 31 35 36 57 65 73 79 98 104
33 13 5 8 8 1 0 1 0 0 0 0 0 0 0 0 0 8 20 26 23 35 36 33 40 40 29
0 0 0 0 5 0 1 0 0 0 0 0 0 5 0 0 0 0 0 2 9 10 19 28 32 12 7
0 0 0 0 0 0 0 0 0 0 0 0 0 0 0 0 0 0 0 0 0 0 5 12 22 25 10
1 1 0 0 0 0 0 0 0 0 0 0 0 0 0 0 0 0 0 0 0 0 0 3 17 31 40
4 0 0 0 0 0 0 0 0 0 0 0 0 0 0 0 0 0 0 0 0 0 0 0 0 0 0
1 1 0 0 0 0 0 0 0 0 0 0 0 0 0 0 0 0 0 0 0 0 0 0 0 0 0
0 1 0 0 0 0 0 0 0 0 0 0 0 0 0 0 0 0 0 0 0 0 0 0 0 0 0
0 0 0 0 0 0 0 0 0 0 0 0 0 0 0 0 0 0 0 0 1 0 0 1 0 0 0
0 0 0 0 0 0 0 0 0 0 0 0 0 0 0 0 0 0 0 0 1 1 0 1 0 0 0
CIN
-0 -0 -0 -0 -0 -0 -20 -10 -3 -0 -0 -0 -0 -0 -0 -0 -0 -0 -0 -0 -0 -0 -0 -0 -0 -0 -0
-0 -0 -0 -0 -0 -0 -0 -4 -19 -0 -0 -0 -0 -0 -0 -0 -0 -0 -0 -0 -0 -0 -0 -0 -0 -0 -0
-0 -0 -0 -0 -0 -0 -0 -0 -0 -0 -0 -0 -0 -0 -0 -0 -0 -0 -0 -0 -0 -0 -0 -0 -0 -0 -0
-0 -0 -1 -0 -0 -0 -0 -0 -0 -0 -0 -0 -0 -0 -0 -0 -0 -0 -0 -0 -0 -0 -0 -0 -0 -0 -0
-0 -0 -0 -0 -0 -0 -0 -2 -1 -4 -0 -0 -0 -0 -0 -0 -0 -0 -0 -0 -0 -0 -0 -0 -0 -0 -0
-0 -0 -0 -0 -0 -0 -1 -1 -0 -1 -4 -0 -3 -1 -0 -0 -0 -0 -0 -0 -0 -0 -0 -0 -0 -0 -0
-0 -0 -0 -0 -7 -1 -1 -1 -0 -1 -0 -0 -0 -0 -0 -0 -0 -0 -0 -0 -0 -0 -0 -0 -0 -0 -0
-0 -0 -6 -4 -2 -1 -1 -1 -1 -1 -1 -0 -0 -0 -0 -0 -0 -0 -0 -0 -0 -0 -0 -0 -0 -0 -0
-0 -0 -0 -0 -0 -2 -0 -1 -0 -0 -0 -0 -0 -0 -0 -0 -0 -0 -0 -0 -0 -0 -0 -0 -0 -0 -0
-0 -0 -0 -0 -0 -0 -1 -0 -0 -0 -0 -0 -0 -0 -0 -0 -0 -0 -0 -0 -0 -0 -0 -0 -0 -1 -1
-0 -0 -0 -0 -0 -0 -1 -0 -0 -0 -0 -0 -0 -0 -0 -0 -0 -0 -0 -0 -0 -0 -0 -0 -0 -0 -0
-0 -0 -0 -0 -0 -0 -0 -0 -1 -0 -0 -0 -0 -0 -0 -0 -0 -0 -0 -0 -0 -0 -0 -0 -0 -0 -0
-0 -0 -0 -0 -0 -0 -0 -0 -0 -0 -0 -0 -0 -0 -0 -0 -0 -0 -0 -0 -0 -0 -0 -0 -0 -0 -0
-0 -0 -0 -0 -0 -0 -0 -0 -0 -0 -0 -0 -0 -0 -0 -0 -0 -0 -0 -0 -0 -0 -0 -0 -0 -0 -0
-0 -0 -0 -0 -0 -0 -0 -0 -0 -0 -0 -0 -0 -0 -0 -0 -0 -0 -0 -0 -0 -0 -0 -0 -0 -0 -0
-0 -0 -0 -0 -0 -0 -0 -0 -0 -0 -0 -0 -0 -0 -0 -0 -0 -0 -0 -0 -0 -0 -0 -0 -0 -0 -0
-0 -0 -0 -0 -0 -0 -0 -0 -0 -0 -0 -0 -0 -0 -0 -0 -0 -0 -0 -0 -0 -0 -0 -0 -0 -0 -0
Wind_Speed
11 11 14 14 11 10 10 10 11 24 31 32 33 34 35 36 35 34 33 33 33 33 33 34 35 36 37
14 13 14 13 13 11 10 10 11 20 29 31 33 34 34 31 32 32 32 34 35 34 33 32 31 33 35
14 13 13 10 12 11 11 12 9 21 26 29 30 31 31 32 35 34 33 32 32 34 32 32 32 32 33
12 13 9 7 10 11 12 10 12 11 18 24 28 29 31 31 32 33 33 33 33 33 33 33 32 33 34
9 7 12 12 12 11 13 13 12 11 13 11 11 11 13 23 26 30 30 31 31 31 32 32 32 33 33
11 14 13 12 13 12 12 14 17 8 9 14 11 13 12 11 25 30 31 32 32 31 31 32 32 33 33
15 13 15 14 13 14 14 13 15 13 13 16 11 14 12 14 28 31 32 32 32 32 31 32 32 32 33
11 14 13 15 15 14 15 16 13 12 11 15 12 14 13 12 29 32 32 31 30 30 30 30 30 30 32
20 25 27 26 22 12 10 12 14 14 11 12 11 14 14 15 13 24 27 29 31 30 30 30 30 33 27
11 14 17 16 23 12 10 12 13 14 8 10 13 11 10 10 7 12 11 23 28 29 29 30 30 15 13
10 11 11 10 10 10 10 11 12 13 16 13 9 12 8 13 11 10 11 12 11 16 25 27 27 24 13
10 10 10 11 11 12 14 13 12 16 17 16 11 12 12 14 15 10 13 12 10 11 10 17 26 29 31
10 11 10 11 12 12 13 14 15 15 13 15 11 13 10 12 13 14 15 10 11 10 10 10 11 10 12
9 11 11 10 11 10 11 12 12 12 10 11 12 10 12 11 10 14 12 8 9 13 11 9 10 10 11
10 11 11 11 11 10 10 10 10 12 13 11 11 11 11 13 9 9 11 12 11 12 11 10 9 9 9
10 10 10 11 11 11 9 9 10 11 11 10 12 13 11 5 9 8 9 11 14 13 12 11 9 10 8
10 10 10 10 14 11 10 9 10 10 9 9 9 8 11 11 6 10 12 12 13 13 12 12 8 12 12
Wind_Direction
293 299 296 293 288 279 273 273 282 293 288 289 291 290 287 285 287 285 285 285 286 280 276 273 270 267 265
294 299 294 295 292 286 279 279 265 275 282 288 293 296 291 291 291 289 285 284 285 283 282 280 277 273 270
290 293 293 293 295 290 285 278 273 280 289 290 291 292 292 291 291 290 288 286 286 281 278 276 273 270 269
281 285 289 304 290 300 299 291 291 289 285 284 288 289 290 292 290 291 291 287 283 280 281 280 275 268 267
305 314 303 311 305 302 294 297 291 290 288 287 283 280 277 282 281 284 284 279 276 275 273 269 265 264 263
304 303 303 301 298 295 294 304 301 283 290 291 284 282 280 276 279 280 281 284 282 279 276 273 269 268 263
302 296 293 296 295 301 297 293 293 300 296 290 292 284 282 278 284 285 285 285 283 281 276 271 265 262 259
293 291 292 301 299 301 300 293 288 290 288 287 294 284 288 283 283 284 285 284 281 278 274 270 270 267 263
305 310 306 308 308 304 300 301 297 299 300 285 292 292 290 283 275 278 281 285 290 287 283 276 270 267 266
312 306 306 297 304 305 302 295 296 301 297 300 299 304 299 279 284 284 272 277 285 283 279 275 270 264 256
310 304 302 306 306 300 293 290 294 289 292 305 300 298 281 304 300 286 285 284 281 279 279 276 270 261 251
306 306 312 305 303 302 296 288 279 279 290 290 284 291 292 294 295 295 300 291 280 276 271 265 267 262 256
310 305 301 299 297 300 300 295 291 288 283 283 280 285 280 282 287 295 301 300 292 276 271 261 256 249 252
303 301 302 304 306 309 305 309 305 307 301 290 293 290 292 284 285 288 297 303 294 290 279 274 265 255 244
304 305 305 309 308 310 304 307 303 309 316 320 317 302 285 276 289 290 308 308 308 310 308 300 289 271 255
302 299 302 304 308 309 309 303 306 310 311 321 324 331 335 292 236 291 320 325 328 328 326 321 307 312 293
300 298 300 304 310 307 307 306 308 306 315 317 321 331 329 330 294 308 333 331 334 339 340 334 326 331 344